Find Starlink 31349

NORAD ID: 59317 Int'l Des: 2024-056 Owner: SPXS Country: US Constellation: starlink operational
LEOCIRCULAR

Live-Position

3D-Globus wird geladen...

Über Starlink 31349

Beschreibung wird geladen...

Nächste Überflüge

Passes for default location (London). Set your location on the main map for personalized predictions.

Höhenverlauf

Loading altitude history...

Zweizeiliger Elementsatz

1 59317U 24056X 26132.95441080 -.00000733 00000-0 -17125-4 0 9992
2 59317 42.9992 227.6993 0001419 269.6126 90.4563 15.27576977121059
Epoch: 12. Mai 2026 • Age: 10 hours

Aktueller Status

Höhe 487.1 km
Geschwindigkeit 7.63 km/s
Subsatellitenpunkt 42.82°N, 38.05°W
Startdatum 24. März 2024
Alter 2.1 years
Typ internet

Technische Details

Klassifizierung Payload
Masse 730.00 kg
Trockenmasse 700.00 kg
Gesamtmasse 730.00 kg
Länge 0.30 m
Durchmesser 4.10 m
Spannweite 29.00 m
Form Box + pan
Hersteller SPXS
Bus-Typ Starlink V2M
Phasenstatus In Orbit
Besitzer/Staat SPXS/US

Most Searched